Weather History for Wadesboro, NC

Change the Weather History Date:

Saturday, February 23, 2013

  Actual Average (KCLT) Record (KCLT)
Temperature  
Mean Temperature 40 °F 46 °F  
Max Temperature 44 °F 57 °F 76 °F (1962)
Min Temperature 36 °F 34 °F 19 °F (1963)
Degree Days  
Heating Degree Days 25 19  
Month to date heating degree days 499  
Since 1 July heating degree days 2606  
Cooling Degree Days 0 0  
Month to date cooling degree days 0  
Year to date cooling degree days 0  
Moisture  
Dew Point 40 °F    
Average Humidity 96    
Maximum Humidity 98    
Minimum Humidity 93    
Precipitation  
Precipitation 0.24 in 0.13 in 1.72 in (1972)
Month to date precipitation 2.68  
Year to date precipitation 6.09  
Snow  
Snow 0.00 in 0.00 in 2.50 in (1989)
Month to date snowfall 1.0  
Since 1 July snowfall 3.5  
Snow Depth -    
Sea Level Pressure  
Sea Level Pressure 29.95 in    
Wind  
Wind Speed 3 mph (NNW)    
Max Wind Speed 8 mph    
Max Gust Speed -    
Visibility 4 miles    
Events Fog , Rain    
T = Trace of Precipitation, MM = Missing Value Source: NWS Daily Summary

Daily Weather History Graph

Daily Weather History Graph

Search for Another Location

Airport:

Trip Planner

Search our weather history database for the weather conditions in past years. The results will help you decide how hot, cold, wet, or windy it might be!

Date:

Astronomy

Feb. 23, 2013 Rise Set
Actual Time 6:56 AM EST 6:10 PM EST
Civil Twilight 6:31 AM EST 6:36 PM EST
Nautical Twilight 6:01 AM EST 7:05 PM EST
Astronomical Twilight 5:32 AM EST 7:35 PM EST
Moon 4:21 PM EST (2/23) 5:15 AM EST (2/23)
Length of Visible Light 12h 05m
Length of Day
11h 13m
Waxing Gibbous, 95% of the Moon is Illuminated
Feb 23
Waxing Gibbous
Feb 25
Full
Mar 4
Last Quarter
Mar 11
New
Mar 19
First Quarter

Hourly Weather History & Observations

Time (EST) Temp. Windchill Dew Point Humidity Pressure Visibility Wind Dir Wind Speed Gust Speed Precip Events Conditions
12:15 AM 36.7 °F 34.1 °F 35.8 °F 97% 30.12 in 1.5 mi North 3.5 mph - N/A   Drizzle
12:55 AM 36.7 °F 34.1 °F 35.8 °F 97% 30.11 in 2.0 mi North 3.5 mph - N/A   Overcast
1:15 AM 36.9 °F 32.2 °F 36.1 °F 97% 30.11 in 2.0 mi NNW 5.8 mph - N/A   Overcast
1:35 AM 37.0 °F 33.3 °F 36.1 °F 97% 30.11 in 2.5 mi North 4.6 mph - N/A   Overcast
1:55 AM 37.0 °F 33.3 °F 36.1 °F 97% 30.09 in 1.5 mi North 4.6 mph - N/A   Drizzle
2:15 AM 37.0 °F 34.5 °F 36.3 °F 97% 30.07 in 1.8 mi North 3.5 mph - N/A   Light Drizzle
2:35 AM 37.4 °F - 36.5 °F 97% 30.06 in 1.8 mi Calm Calm - N/A   Light Drizzle
2:55 AM 37.4 °F 34.9 °F 36.5 °F 97% 30.05 in 1.5 mi North 3.5 mph - N/A Rain Light Rain
3:15 AM 37.4 °F 33.8 °F 36.5 °F 97% 30.04 in 1.0 mi North 4.6 mph - 0.03 in Rain Heavy Rain
3:35 AM 37.4 °F - 36.7 °F 97% 30.03 in 2.0 mi Calm Calm - 0.09 in Rain Rain
3:55 AM 37.6 °F - 36.9 °F 97% 30.03 in 3.0 mi Calm Calm - 0.09 in Rain Light Rain
4:15 AM 37.8 °F - 37.0 °F 97% 30.04 in 5.0 mi Calm Calm - N/A   Light Drizzle
4:35 AM 38.1 °F - 37.4 °F 97% 30.04 in 7.0 mi Calm Calm - N/A   Overcast
4:55 AM 38.3 °F 34.8 °F 37.4 °F 97% 30.04 in 5.0 mi NNW 4.6 mph - N/A Rain Rain
5:15 AM 38.3 °F 33.9 °F 37.4 °F 97% 30.03 in 4.0 mi North 5.8 mph - 0.01 in Rain Rain
5:35 AM 38.3 °F - 37.4 °F 97% 30.01 in 3.0 mi Calm Calm - 0.01 in Rain Light Rain
5:55 AM 38.5 °F 36.1 °F 37.6 °F 97% 30.00 in 4.0 mi North 3.5 mph - 0.02 in Rain Rain
6:15 AM 38.5 °F - 37.8 °F 97% 30.01 in 3.0 mi Calm Calm - 0.01 in Rain Rain
6:35 AM 38.5 °F - 37.8 °F 97% 30.00 in 4.0 mi Calm Calm - 0.02 in Rain Light Rain
6:55 AM 38.7 °F - 37.9 °F 97% 30.00 in 5.0 mi Calm Calm - 0.02 in Rain Light Rain
7:15 AM 38.7 °F - 37.8 °F 97% 29.98 in 5.0 mi Calm Calm - N/A Rain Light Rain
7:35 AM 38.7 °F - 37.8 °F 97% 29.99 in 4.0 mi Calm Calm - 0.02 in Rain Rain
7:55 AM 39.0 °F - 37.9 °F 96% 30.00 in 1.8 mi Calm Calm - 0.07 in Rain Light Rain
8:15 AM 39.2 °F - 38.3 °F 97% 29.99 in 4.0 mi Calm Calm - 0.02 in Rain Rain
8:35 AM 39.2 °F 35.0 °F 38.3 °F 97% 29.97 in 5.0 mi East 5.8 mph - 0.04 in Rain Light Rain
8:55 AM 39.9 °F 36.7 °F 39.0 °F 97% 29.99 in 10.0 mi NNW 4.6 mph - 0.04 in   Overcast
9:15 AM 40.1 °F - 39.2 °F 97% 29.99 in 10.0 mi Calm Calm - N/A   Overcast
9:35 AM 40.5 °F - 39.2 °F 95% 29.98 in 10.0 mi Calm Calm - N/A   Overcast
9:55 AM 40.8 °F 37.8 °F 39.4 °F 95% 29.99 in 10.0 mi NNW 4.6 mph - N/A   Overcast
10:15 AM 41.0 °F 39.0 °F 39.2 °F 93% 29.98 in 10.0 mi North 3.5 mph - N/A   Overcast
10:35 AM 40.8 °F 36.2 °F 39.2 °F 94% 29.98 in 10.0 mi NNW 6.9 mph - N/A   Overcast
10:55 AM 41.0 °F 35.8 °F 39.4 °F 94% 29.98 in 10.0 mi NNW 8.1 mph - N/A   Overcast
11:15 AM 41.0 °F 38.0 °F 39.4 °F 94% 29.98 in 10.0 mi NNW 4.6 mph - N/A   Overcast
11:35 AM 41.4 °F 39.4 °F 39.6 °F 93% 29.97 in 2.0 mi NNW 3.5 mph - N/A   Light Drizzle
11:55 AM 41.5 °F - 39.9 °F 94% 29.97 in 2.0 mi Calm Calm - N/A   Light Drizzle
12:15 PM 42.1 °F - 40.5 °F 94% 29.95 in 2.0 mi Calm Calm - N/A   Light Drizzle
12:35 PM 42.1 °F - 40.5 °F 94% 29.95 in 1.8 mi Calm Calm - N/A   Light Drizzle
12:55 PM 42.8 °F 41.1 °F 41.4 °F 95% 29.95 in 1.5 mi NW 3.5 mph - N/A   Light Drizzle
1:15 PM 42.8 °F 40.1 °F 41.4 °F 95% 29.95 in 1.8 mi NW 4.6 mph - N/A   Overcast
1:35 PM 42.8 °F 39.3 °F 41.2 °F 94% 29.93 in 1.8 mi NNW 5.8 mph - N/A   Overcast
1:55 PM 42.8 °F 39.3 °F 41.2 °F 94% 29.92 in 2.0 mi NNW 5.8 mph - N/A   Overcast
2:15 PM 43.2 °F 41.5 °F 41.5 °F 94% 29.91 in 4.0 mi North 3.5 mph - N/A   Overcast
2:35 PM 43.2 °F 41.5 °F 41.5 °F 94% 29.90 in 7.0 mi NNE 3.5 mph - N/A   Overcast
2:55 PM 43.2 °F - 41.7 °F 95% 29.88 in 10.0 mi Calm Calm - N/A   Overcast
3:15 PM 43.3 °F 41.7 °F 41.9 °F 95% 29.89 in 10.0 mi NNW 3.5 mph - N/A   Overcast
3:35 PM 43.7 °F 40.3 °F 41.9 °F 93% 29.89 in 10.0 mi NNW 5.8 mph - N/A   Overcast
3:55 PM 43.9 °F 40.5 °F 41.9 °F 93% 29.88 in 10.0 mi NNW 5.8 mph - N/A   Overcast
4:15 PM 43.7 °F 40.3 °F 41.9 °F 93% 29.89 in 10.0 mi NNW 5.8 mph - N/A   Overcast
4:35 PM 43.9 °F 40.5 °F 42.1 °F 93% 29.89 in 10.0 mi NW 5.8 mph - N/A   Overcast
4:55 PM 43.9 °F 42.3 °F 42.3 °F 94% 29.89 in 10.0 mi WNW 3.5 mph - N/A   Overcast
5:15 PM 44.1 °F - 42.1 °F 93% 29.87 in 10.0 mi Calm Calm - N/A   Overcast
5:35 PM 43.9 °F - 42.1 °F 93% 29.86 in 10.0 mi Calm Calm - N/A   Overcast
5:55 PM 43.7 °F - 42.1 °F 94% 29.86 in 5.0 mi Calm Calm - N/A   Overcast
6:15 PM 43.7 °F - 42.3 °F 95% 29.87 in 3.0 mi Calm Calm - N/A   Overcast
6:35 PM 43.7 °F - 42.4 °F 95% 29.86 in 1.8 mi Calm Calm - N/A   Overcast
6:55 PM 43.5 °F - 42.6 °F 97% 29.87 in 2.0 mi Calm Calm - N/A   Overcast
7:15 PM 43.5 °F - 42.6 °F 97% 29.88 in 1.8 mi Calm Calm - N/A   Overcast
7:35 PM 43.3 °F - 42.4 °F 97% 29.90 in 3.0 mi Calm Calm - N/A   Overcast
7:55 PM 43.5 °F - 42.6 °F 97% 29.88 in 4.0 mi Calm Calm - N/A   Overcast
8:15 PM 43.5 °F - 42.6 °F 97% 29.88 in 3.0 mi Calm Calm - N/A   Overcast
8:35 PM 43.3 °F - 42.8 °F 98% 29.88 in 2.5 mi Calm Calm - N/A   Overcast
8:55 PM 43.7 °F - 42.8 °F 97% 29.89 in 2.0 mi Calm Calm - N/A   Overcast
9:15 PM 43.7 °F - 42.8 °F 97% 29.88 in 1.5 mi Calm Calm - N/A   Overcast
9:35 PM 43.7 °F - 42.8 °F 97% 29.87 in 0.8 mi Calm Calm - N/A   Overcast
9:55 PM 43.5 °F - 42.8 °F 97% 29.86 in 1.0 mi Calm Calm - N/A   Overcast
10:15 PM 43.3 °F 40.7 °F 42.8 °F 98% 29.85 in 0.2 mi SE 4.6 mph - N/A Fog Fog
10:35 PM 43.7 °F 41.1 °F 42.8 °F 97% 29.86 in 0.5 mi West 4.6 mph - N/A Fog Fog
11:15 PM 43.7 °F - 42.8 °F 97% 29.86 in 1.0 mi Calm Calm - N/A   Overcast
11:35 PM 43.7 °F - 42.8 °F 97% 29.86 in 0.2 mi Calm Calm - N/A Fog Fog
11:55 PM 43.7 °F - 43.0 °F 97% 29.86 in 0.5 mi Calm Calm - N/A Fog Fog